Vorticity
nan nan nan nan nan nan nan nan nan nan nan nan nan nan nan nan nan nan nan nan nan nan nan nan nan nan nan nan nan nan nan nan nan nan nan nan nan nan nan nan nan nan nan
nan 8 6 6 6 4 5 5 4 5 5 5 4 4 4 3 4 4 4 5 5 5 3 17 21 11 11 7 4 3 3 3 3 3 4 5 3 3 2 5 9 7 nan
nan 6 7 7 6 5 6 5 5 5 5 6 6 5 5 3 5 5 4 4 5 5 5 7 10 13 9 5 5 4 4 4 3 3 7 12 8 2 4 4 6 7 nan
nan 5 8 8 5 6 5 5 4 5 6 5 7 8 4 4 6 5 5 6 7 6 5 4 4 4 5 4 5 5 5 4 4 5 8 9 7 6 6 7 6 5 nan
nan 9 9 8 6 6 5 5 5 5 6 6 6 6 6 6 6 5 5 6 7 7 6 6 5 5 5 5 4 4 4 4 5 8 11 6 4 4 5 6 6 6 nan
nan 9 8 6 6 6 6 5 5 5 6 6 7 6 5 6 5 4 5 6 7 7 7 6 5 5 5 5 5 6 4 3 8 12 11 6 5 3 4 6 6 6 nan
nan 8 7 8 6 5 5 5 5 6 7 7 6 5 4 3 5 4 5 5 5 6 5 5 4 4 5 5 5 5 5 6 7 8 10 7 5 4 7 7 8 10 nan
nan 7 6 6 5 5 5 5 5 6 6 4 3 3 5 6 3 4 4 5 4 4 4 4 5 5 5 5 5 4 4 5 7 8 9 4 4 5 7 9 8 9 nan
nan 5 5 5 6 5 5 5 5 5 5 5 4 5 4 6 9 8 4 4 4 4 4 5 5 5 5 5 5 4 4 4 7 10 7 4 3 6 8 8 7 7 nan
nan 7 5 5 5 4 7 7 6 6 6 6 6 7 4 6 12 7 3 5 5 5 5 5 6 5 5 5 4 3 4 9 10 10 3 6 5 6 7 8 7 8 nan
nan 7 8 6 6 5 5 7 7 6 5 5 6 4 1 6 10 7 7 7 5 4 4 5 5 4 5 6 6 5 7 10 11 9 3 6 6 7 8 8 9 9 nan
nan 6 8 9 6 5 6 6 4 4 5 6 7 5 5 10 9 7 8 6 4 4 5 5 4 5 9 9 8 9 9 8 10 7 5 5 6 8 9 9 8 6 nan
nan 6 8 9 7 6 6 5 6 7 7 8 8 5 7 8 6 5 5 5 7 6 6 8 8 8 8 9 9 9 9 8 9 7 6 5 8 9 10 7 5 5 nan
nan 7 8 7 8 6 5 7 7 6 7 9 10 6 6 7 7 6 8 8 8 10 9 8 8 8 8 6 5 8 8 9 10 8 4 6 9 12 9 5 5 5 nan
nan 9 7 6 9 8 5 6 7 7 8 7 7 8 8 7 7 8 9 8 8 9 9 8 8 6 5 8 8 7 6 7 9 9 6 4 10 11 7 5 5 5 nan
nan 10 8 6 6 6 7 9 7 8 8 6 7 9 6 6 8 9 7 8 7 7 8 8 6 7 7 6 6 7 8 8 8 9 9 4 5 6 5 5 4 4 nan
nan 8 9 7 7 8 5 4 7 9 8 8 9 9 6 8 9 8 8 8 8 7 7 6 7 7 7 7 7 7 8 7 9 10 9 7 5 4 3 3 3 4 nan
nan 7 8 10 8 7 9 6 6 6 9 7 7 8 9 8 8 7 8 7 7 8 8 6 8 8 7 7 6 7 8 7 9 9 9 10 7 5 5 2 2 5 nan
nan 8 8 10 9 8 8 9 8 6 7 9 6 8 10 7 7 7 8 8 7 8 8 7 7 8 7 7 8 9 8 8 9 8 8 6 7 9 6 5 3 5 nan
nan 8 7 8 8 7 8 9 7 8 10 10 7 9 9 6 8 7 8 8 7 7 7 9 7 8 7 7 9 11 8 7 8 7 7 6 7 4 6 8 7 4 nan
nan 9 10 7 6 4 7 9 9 9 9 9 11 12 9 8 7 8 8 9 9 9 8 7 7 5 5 10 10 10 11 8 7 6 8 9 8 7 7 6 7 7 nan
nan 8 9 9 9 6 6 8 10 10 8 9 11 10 10 11 9 9 8 8 8 8 9 9 8 7 6 9 12 8 8 8 11 11 8 8 7 8 6 6 6 7 nan
nan 7 9 9 9 9 5 6 8 7 8 7 8 9 9 8 9 9 9 9 8 8 8 7 9 10 8 7 10 9 8 10 8 10 10 8 8 7 6 7 7 8 nan
nan 8 8 10 7 9 8 9 7 6 6 7 9 10 8 7 8 7 9 9 8 8 8 9 8 9 9 9 6 9 10 10 6 7 8 7 7 6 8 9 10 9 nan
nan 15 12 9 10 10 10 6 7 9 10 12 11 8 7 9 8 8 9 8 7 9 9 9 8 10 10 10 8 7 8 10 10 8 6 6 4 7 10 9 9 9 nan
nan nan nan nan nan nan nan nan nan nan nan nan nan nan nan nan nan nan nan nan nan nan nan nan nan nan nan nan nan nan nan nan nan nan nan nan nan nan nan nan nan nan nan
CAPE
820 1460 1986 1533 1068 884 600 588 428 222 113 115 51 10 4 2 0 0 0 0 0 2 19 19 0 0 74 76 20 30 10 0 0 0 0 0 0 0 0 0 0 1 0
844 1333 1990 1928 1403 647 432 377 346 434 206 84 59 13 7 2 0 0 0 0 0 18 27 51 5 0 66 62 40 24 6 0 0 0 0 0 0 0 0 0 0 0 0
924 1327 1579 1828 1311 951 350 236 189 69 42 79 69 71 28 1 0 0 0 0 0 0 9 45 55 82 57 43 35 20 0 0 0 0 0 0 0 0 0 0 0 0 0
920 1017 1186 1560 1270 805 416 297 94 4 1 9 9 61 31 0 0 0 0 0 0 0 0 18 6 8 2 1 1 0 0 0 0 0 0 0 0 0 0 0 0 0 4
915 907 1027 1387 1224 764 410 209 41 0 0 3 4 31 0 0 0 0 0 0 0 0 0 0 0 0 0 0 0 0 0 0 0 0 0 0 0 0 0 0 0 0 0
809 904 1134 1328 1176 858 491 80 15 0 0 0 0 0 0 0 0 0 0 0 0 0 0 0 0 0 0 0 0 0 0 0 3 0 3 2 0 0 0 4 4 0 0
968 914 1009 1451 1236 766 270 97 39 0 0 0 2 0 1 1 0 0 0 0 0 0 0 0 0 0 0 0 0 0 0 0 0 0 1 0 0 5 37 48 44 127 140
1141 913 890 1119 1055 864 528 277 153 54 10 16 30 11 19 25 26 10 0 0 0 0 0 0 0 0 0 0 0 0 0 0 0 2 7 6 39 51 122 33 126 96 132
1166 1067 810 863 851 794 694 592 477 220 79 68 89 85 91 42 72 55 6 0 0 0 0 0 0 0 0 0 0 0 0 0 0 5 1 0 21 12 25 18 3 28 62
574 962 882 840 735 638 632 660 634 472 245 123 92 119 14 7 55 193 83 29 0 0 0 0 0 0 0 0 0 0 0 0 0 1 0 0 2 0 0 0 0 0 1
673 617 857 992 763 578 563 587 645 521 258 83 44 31 0 0 69 59 19 37 45 9 3 9 4 4 11 4 4 0 0 1 1 0 0 0 0 0 0 0 0 5 19
789 602 643 967 845 740 767 556 477 391 163 27 0 0 0 0 51 15 10 35 49 26 13 6 0 0 0 2 4 0 0 0 0 0 0 0 0 0 0 0 2 0 0
815 708 578 740 882 778 1036 719 627 443 219 38 0 0 0 0 0 0 0 0 0 0 0 1 0 0 0 0 0 0 0 0 0 0 0 0 0 0 0 4 0 0 0
716 884 747 833 775 1022 1154 1001 893 731 472 169 0 0 0 0 0 0 0 0 0 0 0 0 0 0 0 0 0 0 0 0 0 0 0 0 0 0 2 0 0 0 0
372 760 940 847 921 906 925 1165 959 911 606 304 209 0 0 0 0 0 0 0 0 0 0 0 0 0 0 0 0 0 0 0 0 0 0 0 0 0 0 0 0 0 0
3 530 857 911 948 1126 1090 984 977 879 612 510 278 1 0 0 0 0 0 0 0 0 0 0 0 0 0 0 0 0 0 0 0 0 0 0 0 0 0 0 0 0 0
0 36 430 826 849 1192 1199 1228 1124 967 646 561 425 68 0 5 15 1 0 0 0 0 0 0 0 0 0 0 0 0 0 0 0 0 0 0 0 0 0 0 0 0 0
0 0 0 497 807 948 1186 1195 1195 1065 716 670 556 226 88 185 31 0 0 0 0 0 0 0 0 0 0 0 0 0 0 0 0 0 0 0 0 0 0 0 0 0 0
0 0 0 0 160 666 1008 1282 1131 1144 936 823 677 388 218 207 0 0 0 0 0 0 0 0 0 0 0 0 0 0 0 0 0 0 0 0 0 0 0 0 0 0 0
0 0 0 0 0 0 563 1228 1217 1125 874 890 807 484 317 75 0 0 0 0 0 0 0 0 0 0 0 0 0 0 0 0 0 0 0 0 0 0 0 0 0 0 0
0 0 0 0 0 0 0 627 1169 1130 864 1030 802 501 321 13 0 0 0 0 0 0 0 0 0 0 0 0 0 0 0 0 0 0 0 0 0 0 0 0 0 0 0
0 0 0 0 0 0 0 94 773 64 0 0 198 265 35 0 0 0 0 0 0 0 0 0 0 0 0 0 0 0 0 0 0 0 0 0 0 0 0 0 0 0 0
0 0 0 0 0 0 0 176 0 0 0 0 0 0 0 0 0 0 0 0 0 0 0 0 0 0 0 0 0 0 0 0 0 0 0 0 0 0 0 0 0 0 0
0 0 0 0 0 0 5 169 0 0 0 0 0 0 0 0 0 0 0 0 0 0 0 0 0 0 0 0 0 0 0 0 0 0 0 0 0 0 0 0 0 0 0
0 0 0 0 0 0 31 308 0 0 0 0 0 0 0 0 0 0 0 0 0 0 0 0 0 0 0 0 0 0 0 0 0 0 0 0 0 0 0 0 0 0 0
0 0 0 0 0 0 114 184 0 0 0 0 0 0 0 0 0 0 0 0 0 0 0 0 0 0 0 0 0 0 0 0 0 0 0 0 0 0 0 0 0 0 0